Wind_Speed
12 12 12 12 12 12 12 12 12 12 12 12 12 13 13 13 13 13 13 13 14 15 14 14 14 14 14 15 16 17 18 18 18 19 20 20 20 21 21 22 22 24 25
12 12 12 12 12 12 13 13 13 12 12 12 12 13 14 14 14 14 14 14 15 15 15 15 15 14 14 14 15 17 17 17 18 19 20 20 21 21 21 22 23 24 25
12 12 12 12 13 13 14 14 13 14 13 13 13 14 15 15 15 14 14 14 15 15 16 16 15 15 15 15 16 17 17 18 18 19 19 20 20 21 21 22 23 24 25
12 13 13 13 13 14 14 14 14 15 15 14 15 15 15 15 15 14 15 15 15 16 17 17 16 16 16 17 17 18 18 19 19 19 19 19 20 21 21 22 22 23 24
13 14 14 14 14 14 14 15 15 15 16 15 16 16 15 15 15 15 15 15 16 17 17 17 17 17 18 19 19 20 20 20 20 20 20 19 19 20 21 22 22 23 23
14 14 14 15 15 15 14 14 15 16 16 16 16 16 15 15 16 16 17 17 17 18 18 19 19 19 19 20 20 21 21 21 21 21 21 21 21 22 22 22 22 22 23
15 15 15 16 16 16 16 16 16 17 16 16 15 16 16 16 17 17 18 18 19 19 20 20 19 20 20 21 21 21 21 21 21 22 22 22 22 22 23 23 23 22 23
16 16 16 16 16 17 17 17 18 17 17 16 17 17 17 17 17 18 18 19 20 20 21 20 20 21 22 22 22 21 21 20 21 21 22 22 22 22 23 23 23 22 22
17 16 17 17 16 17 17 17 18 18 18 18 18 18 18 18 18 18 19 19 20 20 20 20 21 21 21 22 22 21 21 21 21 21 22 22 22 23 24 24 23 23 23
17 17 17 17 17 17 18 18 18 19 18 19 19 19 19 19 19 19 19 20 20 21 21 21 21 21 21 21 21 21 21 20 21 21 20 20 21 22 23 23 23 24 24
17 17 18 18 19 19 19 19 19 20 20 19 19 19 20 20 20 20 20 20 20 20 21 21 22 22 22 22 21 21 21 21 21 21 20 20 21 21 22 22 23 23 23
19 19 19 20 20 20 20 20 21 21 21 20 20 20 20 21 21 22 22 22 21 21 21 22 22 22 22 22 22 22 21 21 21 21 20 20 20 21 22 22 23 23 24
20 20 20 20 20 20 20 21 21 21 20 20 21 21 21 22 22 22 22 22 22 22 22 23 23 23 23 22 22 22 21 21 21 21 21 20 20 20 21 21 22 22 23
20 20 20 20 21 21 21 22 21 21 21 21 22 21 21 22 22 22 22 22 22 22 23 23 23 23 22 22 22 22 22 22 22 21 22 22 22 22 22 22 22 23 23
20 20 21 21 21 22 22 22 21 21 21 21 22 22 22 22 22 21 21 21 21 22 23 23 23 23 23 23 23 23 23 22 23 23 23 23 23 23 23 23 23 23 22
20 21 21 21 21 22 22 22 21 21 22 22 22 23 22 22 22 21 21 22 23 23 23 23 23 23 24 23 23 23 23 23 23 23 23 24 24 24 24 24 23 23 23
21 21 21 21 22 22 21 21 22 22 22 22 21 22 22 22 22 22 22 23 23 23 24 24 24 23 23 22 23 23 23 23 23 23 23 24 24 24 24 24 23 24 23
21 22 22 22 22 22 22 22 22 22 22 22 22 22 21 21 22 22 22 23 23 23 24 23 23 22 22 22 23 23 23 23 23 23 24 24 24 24 24 24 24 24 24
21 22 22 22 22 22 22 22 22 22 22 21 21 21 21 21 21 22 23 23 23 23 23 23 22 22 22 23 23 23 24 24 24 24 24 24 23 23 24 24 24 24 23
21 21 22 21 21 21 21 21 21 21 21 21 20 21 21 21 21 22 22 23 23 23 23 23 23 23 24 24 24 24 24 24 24 24 24 24 24 24 24 24 23 23 22
20 21 21 21 21 20 20 20 20 20 20 20 20 20 21 21 21 21 21 22 22 22 23 23 24 24 24 24 24 24 24 24 24 24 24 24 24 24 24 23 23 23 23
20 20 20 20 20 20 19 19 19 19 19 19 20 20 21 21 21 22 22 22 22 22 23 23 24 24 24 24 24 24 24 24 24 24 24 24 24 24 23 23 23 23 23
19 20 20 19 19 19 18 18 18 18 18 19 19 20 20 21 21 22 22 21 22 23 23 24 24 25 25 25 25 24 24 24 24 24 24 23 23 23 23 23 23 23 23
19 19 19 19 18 18 18 18 19 19 19 19 19 20 20 20 21 22 22 22 22 23 23 24 25 25 25 25 25 25 25 25 25 25 24 23 22 23 23 23 22 22 22
19 18 18 18 18 18 18 18 19 19 19 20 20 20 20 20 21 21 21 21 21 22 23 24 25 25 25 25 25 25 24 25 25 25 25 24 23 23 23 23 22 21 21
19 19 18 18 18 18 18 18 19 19 19 20 20 20 19 20 20 21 21 22 22 23 23 24 25 25 25 25 25 25 25 25 25 24 24 23 22 22 22 21 21 21 21
Wind_Direction
286 286 288 289 289 292 296 299 299 299 298 295 295 295 296 298 302 305 304 305 308 309 307 302 299 289 285 285 284 285 283 281 279 276 274 273 273 272 273 270 268 265 264
289 287 286 285 285 285 289 293 294 295 297 298 297 296 295 295 297 299 302 305 308 309 310 308 304 301 296 291 292 290 287 286 284 280 275 274 275 274 272 271 269 268 266
291 290 290 289 287 285 286 290 291 290 290 292 295 298 296 296 295 296 301 304 307 309 309 307 304 303 302 299 297 296 292 290 288 285 282 278 276 274 272 272 271 270 269
290 291 291 291 291 287 286 288 292 291 291 291 295 300 301 299 296 295 299 302 305 306 305 303 301 301 300 300 298 296 295 293 291 288 286 282 281 277 275 275 273 271 269
291 292 292 289 290 292 290 292 295 296 297 297 298 299 299 297 296 295 296 299 302 304 305 304 301 300 300 300 299 297 294 292 289 288 285 284 284 282 279 277 276 273 271
288 288 288 288 290 292 292 293 292 294 295 295 296 297 297 295 295 294 294 297 301 303 304 304 301 298 300 301 300 298 296 292 288 286 284 283 282 283 282 280 277 275 274
288 286 284 285 286 287 288 289 293 294 294 294 295 297 297 296 295 295 297 297 298 299 301 302 300 299 299 300 301 301 300 296 292 288 284 283 283 282 281 280 278 276 275
287 286 285 285 284 284 286 288 292 293 293 293 294 297 296 296 297 296 297 297 297 298 301 300 300 300 298 298 298 299 299 297 295 290 285 284 282 281 281 281 280 277 277
287 287 287 285 284 285 286 289 292 291 291 292 293 295 297 298 297 296 297 298 299 299 299 300 300 301 300 300 298 297 296 297 297 294 290 285 282 281 281 281 280 277 276
284 285 287 287 286 286 286 287 289 289 289 290 292 293 294 295 296 296 296 298 299 299 300 301 302 302 301 301 300 298 296 296 297 296 293 289 286 282 281 280 279 276 275
284 285 287 288 288 286 285 287 290 289 289 290 291 291 292 293 294 295 295 296 298 298 300 300 301 301 300 299 299 299 297 296 295 296 295 292 289 286 283 280 279 278 278
284 286 286 287 286 286 286 287 291 291 290 289 289 290 290 291 293 293 294 294 295 296 297 299 299 299 298 298 298 299 298 298 297 297 296 295 292 289 286 283 282 280 279
282 283 284 285 285 285 286 288 290 289 290 289 289 289 289 291 293 293 291 291 293 294 296 298 299 299 298 297 298 298 298 297 296 297 297 296 295 295 293 289 287 284 282
280 281 283 284 284 285 286 287 288 287 289 291 290 290 290 291 293 292 292 292 292 293 296 298 298 298 297 297 297 297 298 297 295 295 295 294 294 294 294 292 290 288 285
280 281 281 282 283 285 286 286 286 287 287 289 291 291 292 293 293 292 292 293 293 294 296 297 298 299 298 297 296 297 298 297 296 295 294 294 294 294 294 292 291 289 288
282 283 283 283 283 285 286 286 286 287 287 288 291 292 293 293 292 292 291 293 294 295 294 296 298 298 297 297 297 296 296 296 295 295 295 294 294 294 294 293 292 291 289
283 284 284 283 283 283 285 287 287 288 289 288 292 293 293 294 293 293 294 294 294 295 295 296 297 297 297 297 297 297 296 296 296 296 296 297 295 293 293 292 290 289 289
282 283 284 283 282 283 283 285 288 288 288 288 291 292 292 292 293 293 295 295 296 297 298 297 297 297 297 297 298 298 297 297 297 298 298 298 296 293 291 291 291 291 290
283 285 286 285 284 285 284 284 286 287 287 287 288 291 291 290 291 292 293 295 296 297 298 298 298 297 297 299 299 298 297 297 298 298 299 299 297 295 294 295 293 291 290
282 284 285 284 286 286 285 284 284 286 287 286 287 290 290 289 290 291 293 295 298 299 298 297 296 297 298 299 300 300 300 299 298 298 298 299 299 298 297 296 295 293 290
283 284 284 284 286 285 284 284 285 286 288 288 288 289 290 290 291 291 294 296 298 299 298 296 296 298 300 301 300 299 299 300 300 299 299 300 299 299 298 296 295 294 291
282 283 285 285 285 284 283 282 284 287 288 289 290 290 292 291 291 292 292 295 297 299 299 299 299 299 300 300 300 301 301 302 302 301 301 301 300 300 299 298 296 293 291
282 282 284 285 285 283 281 282 284 285 287 289 289 289 291 292 291 291 293 295 298 300 300 301 301 300 299 300 300 300 301 302 302 303 303 302 301 301 300 299 298 295 293
284 283 283 283 282 281 281 282 283 285 287 288 289 291 293 294 294 293 294 297 297 299 299 300 302 302 301 300 300 300 301 302 302 302 302 301 300 300 300 300 299 296 295
286 284 282 281 280 281 281 281 284 286 288 289 290 292 294 295 295 295 295 296 297 299 301 303 303 304 304 303 302 302 300 300 301 301 301 300 299 298 299 299 299 297 296
285 284 282 281 280 280 282 284 286 288 289 290 291 292 293 294 295 295 295 295 297 299 301 303 305 306 306 304 303 301 299 301 303 302 301 300 299 299 299 298 298 296 296
Height
5805 5804 5803 5802 5801 5800 5799 5798 5797 5795 5794 5793 5791 5790 5788 5787 5785 5784 5782 5780 5778 5776 5774 5771 5769 5768 5766 5764 5763 5762 5761 5760 5759 5758 5757 5756 5755 5754 5753 5753 5753 5753 5754
5801 5800 5799 5798 5797 5797 5796 5794 5793 5791 5790 5789 5787 5786 5784 5782 5781 5780 5778 5777 5775 5773 5770 5768 5766 5764 5762 5760 5759 5757 5756 5754 5753 5752 5751 5750 5749 5748 5747 5747 5746 5746 5746
5797 5796 5795 5794 5793 5793 5792 5790 5789 5788 5786 5785 5783 5782 5780 5778 5777 5776 5775 5773 5771 5769 5767 5764 5762 5760 5758 5757 5755 5753 5751 5749 5748 5746 5745 5744 5743 5742 5741 5740 5740 5739 5739
5793 5792 5791 5790 5789 5788 5787 5786 5784 5783 5781 5780 5779 5777 5776 5774 5773 5772 5771 5769 5767 5765 5762 5760 5758 5756 5754 5752 5750 5748 5746 5744 5742 5741 5740 5738 5737 5735 5735 5734 5733 5732 5732
5788 5787 5787 5786 5785 5784 5783 5782 5780 5779 5777 5776 5775 5773 5772 5770 5769 5767 5766 5764 5762 5760 5758 5756 5753 5751 5749 5747 5745 5743 5741 5739 5737 5735 5734 5733 5731 5730 5728 5727 5726 5725 5725
5784 5783 5782 5782 5781 5780 5779 5778 5776 5775 5773 5772 5770 5769 5767 5766 5764 5763 5761 5759 5758 5755 5753 5751 5749 5746 5744 5742 5739 5737 5735 5733 5731 5729 5728 5727 5725 5724 5722 5720 5719 5719 5719
5779 5779 5778 5777 5776 5775 5774 5773 5772 5770 5769 5767 5765 5764 5763 5761 5759 5758 5756 5754 5753 5750 5748 5746 5743 5741 5739 5736 5733 5731 5728 5726 5725 5723 5721 5720 5719 5717 5716 5714 5713 5712 5711
5774 5773 5772 5772 5771 5770 5769 5768 5767 5765 5764 5762 5761 5759 5758 5756 5754 5753 5751 5749 5747 5745 5743 5740 5738 5735 5733 5730 5728 5725 5723 5721 5718 5716 5715 5713 5712 5710 5709 5707 5706 5705 5705
5770 5769 5768 5767 5766 5765 5764 5763 5762 5760 5759 5758 5756 5754 5753 5751 5749 5748 5746 5744 5742 5739 5737 5734 5732 5729 5727 5724 5722 5719 5717 5715 5712 5710 5708 5706 5705 5703 5702 5701 5699 5699 5698
5765 5764 5763 5762 5762 5761 5759 5758 5757 5755 5754 5752 5751 5749 5748 5746 5744 5742 5740 5738 5736 5734 5731 5729 5726 5724 5721 5718 5716 5713 5711 5709 5706 5704 5702 5700 5698 5697 5695 5694 5692 5691 5691
5760 5759 5758 5757 5756 5755 5754 5752 5751 5749 5748 5747 5745 5744 5742 5740 5738 5736 5734 5732 5730 5728 5726 5723 5720 5718 5715 5713 5710 5708 5705 5703 5700 5698 5696 5694 5692 5690 5688 5687 5685 5684 5684
5755 5754 5753 5752 5750 5749 5748 5746 5745 5743 5742 5741 5739 5737 5736 5734 5732 5730 5728 5726 5724 5722 5720 5717 5715 5712 5709 5706 5704 5702 5699 5697 5695 5692 5690 5688 5686 5684 5682 5680 5679 5677 5676
5749 5748 5747 5745 5744 5743 5742 5740 5739 5737 5736 5734 5733 5731 5730 5728 5726 5724 5722 5720 5718 5715 5713 5711 5708 5706 5703 5700 5698 5695 5693 5690 5688 5686 5684 5682 5680 5678 5675 5674 5672 5670 5669
5743 5742 5741 5740 5738 5737 5735 5734 5733 5731 5730 5728 5726 5725 5723 5722 5719 5717 5715 5713 5711 5709 5706 5704 5701 5699 5696 5694 5691 5689 5686 5684 5682 5680 5678 5675 5673 5671 5669 5667 5665 5663 5661
5737 5736 5735 5733 5732 5730 5729 5727 5726 5725 5723 5722 5720 5718 5717 5715 5713 5710 5708 5706 5704 5702 5700 5698 5695 5692 5690 5688 5685 5683 5680 5678 5675 5673 5671 5669 5666 5664 5662 5659 5657 5655 5654
5730 5729 5728 5727 5725 5724 5722 5720 5719 5718 5717 5715 5713 5712 5710 5708 5706 5704 5702 5700 5698 5696 5694 5691 5689 5686 5683 5681 5678 5676 5673 5671 5668 5666 5664 5661 5659 5657 5654 5652 5650 5648 5646
5723 5722 5721 5720 5718 5717 5715 5714 5713 5712 5710 5708 5706 5705 5703 5701 5699 5697 5695 5693 5691 5689 5687 5684 5682 5679 5677 5674 5671 5669 5666 5664 5661 5659 5657 5654 5651 5649 5647 5644 5642 5640 5638
5716 5715 5714 5713 5711 5710 5708 5707 5706 5704 5703 5702 5700 5698 5696 5695 5693 5691 5689 5687 5685 5682 5680 5677 5675 5672 5670 5667 5664 5662 5659 5657 5654 5652 5649 5646 5644 5641 5639 5637 5634 5632 5631
5709 5708 5707 5705 5704 5702 5701 5700 5699 5697 5696 5695 5693 5692 5690 5688 5686 5685 5683 5681 5678 5676 5673 5671 5668 5666 5663 5661 5658 5655 5653 5650 5647 5644 5642 5639 5636 5634 5631 5629 5626 5624 5622
5702 5701 5699 5698 5696 5695 5694 5693 5692 5690 5689 5688 5687 5685 5683 5681 5680 5678 5676 5674 5672 5670 5667 5664 5662 5659 5657 5654 5651 5648 5646 5643 5640 5637 5635 5632 5629 5626 5623 5621 5618 5616 5614
5695 5693 5692 5691 5689 5688 5687 5686 5685 5684 5682 5681 5680 5678 5677 5675 5673 5671 5669 5668 5665 5663 5660 5658 5655 5653 5650 5647 5644 5641 5638 5636 5633 5630 5627 5624 5621 5618 5616 5613 5611 5609 5607
5688 5686 5685 5684 5683 5682 5680 5680 5679 5677 5676 5675 5673 5672 5670 5668 5666 5664 5663 5661 5658 5656 5654 5651 5648 5646 5643 5640 5637 5634 5631 5628 5626 5623 5620 5617 5614 5611 5608 5605 5603 5601 5599
5681 5680 5678 5677 5676 5675 5674 5673 5672 5671 5670 5668 5667 5665 5663 5661 5659 5657 5655 5654 5652 5649 5647 5644 5641 5639 5636 5633 5630 5627 5624 5621 5618 5615 5612 5609 5606 5603 5600 5598 5595 5593 5591
5674 5673 5671 5670 5669 5668 5668 5667 5666 5665 5663 5662 5660 5658 5656 5655 5653 5651 5649 5647 5645 5643 5640 5637 5635 5632 5628 5625 5622 5619 5616 5613 5610 5607 5604 5602 5599 5596 5593 5590 5588 5586 5584
5667 5666 5665 5664 5663 5662 5661 5660 5659 5658 5657 5655 5653 5652 5650 5648 5646 5644 5642 5641 5639 5636 5633 5630 5627 5624 5621 5618 5615 5612 5609 5605 5602 5599 5597 5594 5591 5589 5586 5583 5581 5579 5577
5661 5659 5658 5658 5657 5656 5655 5654 5653 5652 5650 5649 5647 5645 5644 5642 5640 5638 5636 5634 5632 5629 5626 5624 5620 5617 5614 5610 5607 5604 5601 5598 5595 5592 5589 5586 5584 5581 5579 5577 5574 5572 5570